Weather History for KSJN - March, 2013

Change the Weather History Date:

Thursday, March 14, 2013

  Actual Average (KSOW) Record (KSOW)
Temperature  
Mean Temperature 50 °F -  
Max Temperature 71 °F 54 °F 71 °F (2007)
Min Temperature 28 °F 32 °F 6 °F (2006)
Degree Days  
Heating Degree Days 16    
Moisture  
Dew Point 20 °F    
Average Humidity 33    
Maximum Humidity 78    
Minimum Humidity 7    
Precipitation  
Precipitation 0.00 in - - ()
Sea Level Pressure  
Sea Level Pressure 30.20 in    
Wind  
Wind Speed 3 mph (SW)    
Max Wind Speed 10 mph    
Max Gust Speed -    
Visibility 10 miles    
Events      
Averages and records for this station are not official NWS values.
T = Trace of Precipitation, MM = Missing Value Source: NWS Daily Summary

Daily Weather History Graph

Daily Weather History Graph

Search for Another Location

Airport or City:

Trip Planner

Search our weather history database for the weather conditions in past years. The results will help you decide how hot, cold, wet, or windy it might be!

Date:

Astronomy

Mar. 14, 2013 Rise Set
Actual Time 6:28 AM MST 6:24 PM MST
Civil Twilight 6:03 AM MST 6:49 PM MST
Nautical Twilight 5:34 AM MST 7:18 PM MST
Astronomical Twilight 5:05 AM MST 7:48 PM MST
Moon 7:53 AM MST (3/14) 9:33 PM MST (3/14)
Length of Visible Light 12h 45m
Length of Day
11h 55m
Waxing Crescent, 9% of the Moon is Illuminated
Mar 14
Waxing Crescent
Mar 19
First Quarter
Mar 27
Full
Apr 2
Last Quarter
Apr 10
New

Hourly Weather History & Observations

Time (MST) Temp. Windchill Dew Point Humidity Pressure Visibility Wind Dir Wind Speed Gust Speed Precip Events Conditions
12:54 AM 41.0 °F 39.0 °F 23.0 °F 49% 30.19 in 10.0 mi SSE 3.5 mph - N/A   Clear
1:54 AM 37.9 °F - 23.0 °F 55% 30.19 in 10.0 mi Calm Calm - N/A   Clear
2:54 AM 32.0 °F - 21.9 °F 66% 30.22 in 10.0 mi Calm Calm - N/A   Clear
3:54 AM 37.0 °F 32.4 °F 21.9 °F 54% 30.20 in 10.0 mi SSE 5.8 mph - N/A   Clear
4:54 AM 30.9 °F - 21.0 °F 67% 30.23 in 10.0 mi Calm Calm - N/A   Clear
5:54 AM 30.9 °F - 21.0 °F 67% 30.25 in 10.0 mi Calm Calm - N/A   Clear
6:54 AM 28.0 °F - 21.9 °F 78% 30.32 in 10.0 mi Calm Calm - N/A   Clear
7:54 AM 39.0 °F - 24.1 °F 55% 30.32 in 10.0 mi Calm Calm - N/A   Clear
8:54 AM 46.9 °F - 24.1 °F 41% 30.30 in 10.0 mi Calm Calm - N/A   Clear
9:54 AM 53.1 °F - 23.0 °F 31% 30.28 in 10.0 mi Calm Calm - N/A   Clear
10:54 AM 59.0 °F - 23.0 °F 25% 30.25 in 10.0 mi Calm Calm - N/A   Clear
11:54 AM 64.9 °F - 21.0 °F 19% 30.22 in 10.0 mi Calm Calm - N/A   Clear
12:54 PM 69.1 °F - 19.9 °F 15% 30.18 in 10.0 mi Variable 5.8 mph - N/A   Clear
1:54 PM 72.0 °F - 18.0 °F 13% 30.14 in 10.0 mi NE 9.2 mph - N/A   Clear
2:54 PM 72.0 °F - 16.0 °F 12% 30.14 in 10.0 mi Variable 4.6 mph - N/A   Clear
3:10 PM 71.6 °F - 15.8 °F 12% 30.27 in 1.0 mi Calm Calm - N/A   Haze
3:19 PM 73.4 °F - 17.6 °F 12% 30.27 in 4.0 mi North 9.2 mph - N/A   Haze
3:54 PM 75.0 °F - 14.0 °F 10% 30.09 in 10.0 mi North 4.6 mph - N/A   Clear
4:54 PM 73.0 °F - 12.9 °F 10% 30.11 in 10.0 mi NNW 5.8 mph - N/A   Clear
5:54 PM 71.1 °F - 15.1 °F 12% 30.11 in 10.0 mi WNW 3.5 mph - N/A   Clear
6:54 PM 54.0 °F - 19.0 °F 25% 30.18 in 10.0 mi West 6.9 mph - N/A   Clear
7:54 PM 55.9 °F - 19.0 °F 24% 30.14 in 10.0 mi West 3.5 mph - N/A   Clear
8:54 PM 52.0 °F - 21.0 °F 30% 30.14 in 10.0 mi South 3.5 mph - N/A   Clear
9:54 PM 48.0 °F - 21.0 °F 34% 30.15 in 10.0 mi South 5.8 mph - N/A   Clear
10:54 PM 48.0 °F - 21.0 °F 34% 30.13 in 10.0 mi South 8.1 mph - N/A   Clear
11:54 PM 48.0 °F - 19.9 °F 33% 30.10 in 10.0 mi SSW 3.5 mph - N/A   Clear